TimeEDT,TemperatureF,Dew PointF,Humidity,Sea Level PressureIn,VisibilityMPH,Wind Direction,Wind SpeedMPH,Gust SpeedMPH,PrecipitationIn,Events,Conditions,WindDirDegrees,DateUTC
12:56 AM,35.1,28.0,76,30.23,10.0,West,5.8,-,N/A,,Clear,280,2012-10-11 04:56:00
1:56 AM,32.0,28.0,85,30.23,10.0,West,4.6,-,N/A,,Clear,270,2012-10-11 05:56:00
2:56 AM,30.0,27.0,88,30.23,10.0,SW,4.6,-,N/A,,Clear,220,2012-10-11 06:56:00
3:56 AM,28.9,26.1,89,30.23,10.0,SW,3.5,-,N/A,,Clear,220,2012-10-11 07:56:00
4:56 AM,30.0,27.0,88,30.26,10.0,Calm,Calm,-,N/A,,Clear,0,2012-10-11 08:56:00
5:56 AM,30.0,28.0,92,30.28,10.0,SW,3.5,-,N/A,,Clear,230,2012-10-11 09:56:00
6:56 AM,28.0,27.0,96,30.29,10.0,Calm,Calm,-,N/A,,Clear,0,2012-10-11 10:56:00
8:56 AM,36.0,30.9,82,30.30,10.0,SSW,3.5,-,N/A,,Clear,200,2012-10-11 12:56:00
9:56 AM,42.1,30.0,62,30.31,10.0,SSW,11.5,16.1,N/A,,Clear,210,2012-10-11 13:56:00
10:56 AM,48.0,30.0,50,30.28,10.0,SSW,11.5,18.4,N/A,,Clear,210,2012-10-11 14:56:00
11:56 AM,51.1,28.0,41,30.27,10.0,SW,12.7,20.7,N/A,,Clear,220,2012-10-11 15:56:00
12:56 PM,53.1,28.9,40,30.25,10.0,SSW,13.8,21.9,N/A,,Clear,210,2012-10-11 16:56:00
1:56 PM,54.0,28.0,37,30.22,7.0,WSW,11.5,20.7,N/A,,Clear,240,2012-10-11 17:56:00
2:56 PM,55.9,28.9,36,30.18,10.0,WSW,12.7,21.9,N/A,,Clear,240,2012-10-11 18:56:00
3:56 PM,55.9,28.9,36,30.16,8.0,WSW,9.2,20.7,N/A,,Clear,240,2012-10-11 19:56:00
4:56 PM,55.9,28.9,36,30.17,10.0,WSW,10.4,-,N/A,,Clear,250,2012-10-11 20:56:00
5:56 PM,54.0,30.0,40,30.14,10.0,SSW,12.7,-,N/A,,Clear,210,2012-10-11 21:56:00
7:56 PM,44.1,32.0,63,30.17,10.0,SSW,4.6,-,N/A,,Clear,210,2012-10-11 23:56:00
9:56 PM,44.1,34.0,68,30.18,10.0,SSW,3.5,-,N/A,,Clear,210,2012-10-12 01:56:00
10:56 PM,41.0,34.0,76,30.19,10.0,SW,4.6,-,N/A,,Clear,220,2012-10-12 02:56:00
11:56 PM,42.1,33.1,70,30.17,10.0,SSW,3.5,-,N/A,,Clear,200,2012-10-12 03:56:00